Regional Weather Roundup
Issued by NWS Wakefield, VA

Home | Current Version | Previous Version | Text Only | Print | Product List | Glossary On
Versions: 1 2 3 4 5 6 7 8 9 10 11 12 13 14 15 16 17 18 19 20 21 22 23 24 25 26 27 28 29 30 31 32 33 34 35 36 37 38 39 40 41 42 43 44 45 46 47 48 49 50
000
ASUS41 KAKQ 311910
RWRAKQ

REGIONAL WEATHER ROUNDUP
NATIONAL WEATHER SERVICE WAKEFIELD VA
300 PM EDT THU JUL 31 2014

Note: "fair" indicates few or no clouds below 12,000 feet with no
significant weather and/or obstructions to visibility. * = Denotes
station may not report precipitation (e.g., rain,snow,etc.),
thunder or fog.

VAZ042-051-052>054-056-312000-
NORTHERN VIRGINIA

CITY           SKY/WX    TMP DP  RH WIND       PRES   REMARKS
WASH NATIONAL  PTSUNNY   87  60  40 SW8       30.09S
DULLES         MOSUNNY   84  55  36 SW10      30.09S
FORT BELVOIR   SUNNY     86  60  40 VRB6      30.10S
QUANTICO       PTSUNNY   86  57  37 VRB5      30.09F
FREDERICKSBRG* MOSUNNY   87  58  37 SW10      30.09S
STAFFORD*      MOSUNNY   86  56  35 SW8       30.13F
WARRENTON      MOSUNNY   84  65  52 S5        30.10S
CULPEPER*      SUNNY    N/A N/A N/A SW7       30.10S
MANASSAS*      NOT AVBL
LEESBURG*      PTSUNNY   84  59  42 CALM      30.10S
WINCHESTER     MOSUNNY   82  55  39 SW5       30.10F
$$

VAZ048-049-060>072-079>083-312000-
CENTRAL AND SOUTH CENTRAL VIRGINIA...AND NORTH CENTRAL NORTH CAROLINA

CITY           SKY/WX    TMP DP  RH WIND       PRES   REMARKS
RICHMOND       CLOUDY    84  62  47 S9        30.12S
CHESTERFIELD*  CLOUDY    82  59  44 S5        30.14S
HANOVER        PTSUNNY   83  60  45 SW8       30.12S
TAPPAHANNOCK*  PTSUNNY   82  59  45 S7        30.12S
CHARLOTTSVILLE MOSUNNY   84  56  38 MISG      30.11S
ORANGE*        SUNNY     86  55  35 SW8       30.11F
LOUISA*        MOSUNNY   82  59  44 SW5       30.10S
FARMVILLE*     CLOUDY    82  64  54 S6        30.10F
SOUTH HILL*    CLOUDY    81  68  65 S6        30.18S
ROANOKE RAPIDS CLOUDY    81  64  57 S3        30.13S
RALEIGH        CLOUDY    80  65  59 SE7       30.14S
$$

VAZ088>098-312000-
SOUTHEAST VIRGINIA

CITY           SKY/WX    TMP DP  RH WIND       PRES   REMARKS
NORFOLK        PTSUNNY   83  58  42 VRB3      30.13F
VIRGINIA BEACH PTSUNNY   82  65  56 SE10      30.13S
NORFOLK NAVAL  PTSUNNY   84  62  47 W3        30.14F
WEST POINT*    PTSUNNY   86  62  44 S7        30.13F
NEWPORT NEWS   PTSUNNY   86  65  49 SW7       30.13S
LANGLEY AFB    PTSUNNY   82  65  54 SE9       30.12F
FORT EUSTIS    MOSUNNY   82  68  60 S7        30.11F
WILLIAMSBURG*  PTSUNNY   86  66  51 S7        30.13F
FRANKLIN*      PTSUNNY   84  63  48 SE3       30.13S
WAKEFIELD      PTSUNNY   84  65  52 SW3       30.13S
$$

VAZ020-022-025-037-045-312000-
WESTERN AND SOUTHWEST VIRGINIA

CITY           SKY/WX    TMP DP  RH WIND       PRES   REMARKS
STAUNTON*      MOSUNNY   83  49  29 S8        30.13F
HOT SPRINGS VA PTSUNNY   68  47  46 W7        30.26F
LYNCHBURG      CLOUDY    80  64  58 S9        30.15F
DANVILLE       CLOUDY    80  66  62 SW6       30.14S
MARTINSVILLE   CLOUDY    80  63  56 CALM      30.17S
ROANOKE        PTSUNNY   79  61  53 SE12      30.15S
BLACKSBURG     CLOUDY    79  61  53 S7          N/A
DUBLIN*        CLOUDY    80  58  47 SW5       30.19S
MARION*        PTSUNNY   75  58  55 SE3       30.21F
HILLSVILLE*    CLOUDY    73  59  62 S5        30.21S
RICHLANDS*     MOCLDY    77  58  50 S5        30.19S
WISE*          CLOUDY    77  55  47 SE3       30.19F
ABINGDON*      PTSUNNY   80  60  51 SW3       30.16F
$$

MDZ021>025-VAZ099-100-312000-
SOUTHERN MARYLAND AND THE DELMARVA PENINSULA

CITY           SKY/WX    TMP DP  RH WIND       PRES   REMARKS
PATUXENT RIVER PTSUNNY   82  66  58 SE14G22   30.10S
BAY BRIDGE APT   N/A     82  59  44 S10       30.10S
LEONARDTOWN    MOSUNNY   82  57  42 W8        30.12S
DOVER          MOSUNNY   85  62  46 SW10      30.09S
GEORGETOWN     MOSUNNY   84  61  45 S15       30.11S
EASTON         MOSUNNY   86  63  45 SW9       30.14S
CAMBRIDGE      MOSUNNY   84  59  42 SW7       30.11S
SALISBURY      SUNNY     87  59  38 SW13      30.11F
OCEAN CITY     MOSUNNY   80  69  69 SW10      30.13S
WALLOPS ISLAND MOSUNNY   81  68  64 S14       30.13S
ACCOMACK*        N/A     81  63  54 SW6       30.13S
$$

NCZ012>017-030>032-312000-
EASTERN NORTH CAROLINA

CITY           SKY/WX    TMP DP  RH WIND       PRES   REMARKS
ELIZABETH CITY MOSUNNY   82  63  52 SE6       30.14S
AHOSKIE*       PTSUNNY   81  65  58 SE6       30.14S
EDENTON*       MOSUNNY   82  64  56 E3        30.14S
CURRITUCK*     MOSUNNY   87  59  39 E5        30.15S
KILL DEVIL HLS MOSUNNY   81  60  48 E5        30.14S
MANTEO         NOT AVBL
CAPE HATTERAS  NOT AVBL
GOLDSBORO      PTSUNNY   84  71  65 SE8       30.10F
WASHINGTON     PTSUNNY   82  64  53 SE5       30.14R
GREENVILLE     PTSUNNY   84  63  48 SE5       30.14S
NEW BERN       PTSUNNY   85  64  49 E9        30.13F
WILMINGTON     PTSUNNY   84  68  58 E16       30.11S
$$

VAZ048-312000-
ELSEWHERE

CITY           SKY/WX    TMP DP  RH WIND       PRES   REMARKS
HARRISBURG PA  PTSUNNY   83  61  47 SW6       30.07S
BALTIMORE      MOSUNNY   86  56  35 VRB5      30.08S
ANNAPOLIS      MOSUNNY   81  62  52 SE10      30.09S
ANDREWS AFB    PTSUNNY   85  62  45 S12G20    30.09F
WILMINGTON DE  MOSUNNY   83  61  47 W12G18    30.10S
PHILADELPHIA   MOSUNNY   84  61  45 W15       30.08F
WILDWOOD NJ*   SUNNY     82  63  51 S14       30.13S
ATLANTIC CITY  MOSUNNY   83  59  44 SW8       30.10S
HENDERSON NC   CLOUDY    80  63  56 S6        30.13F
GREENSBORO     CLOUDY    73  67  81 NW6       30.14S THUNDER
ROCKY MOUNT    PTSUNNY   83  66  56 E6        30.13F
FAYETTEVILLE   CLOUDY    87  62  43 E10       30.09F
CHARLOTTE      LGT RAIN  77  68  73 N9        30.13S
$$

VAZ100-312000-
MARINE

STATION/POSITION TIME  TEMP    WIND        PRES    WAVE   SWELL
                       AIR SEA DIR/SP/G            HT/PER HT/PER
                 (UTC) (F)     (DEG/KT/KT) (MB)    (FT/S) (FT/S)
44066 TX TWR #4  1900   74 76  200/  6/  8 1020.6S   3/ 7   3/ 7
CAPE MAY NJ      1900   76 76  180/ 13/ 16 1019.3S
LEWES DE         1900   81 72  200/  4/  7 1019.3S
15NM E FENWICK I 1900   76 74              1020.4S   3/ 8
OCEAN-CITY-INLET 1900   76 72  190/ 11/ 15 1019.8S
WACHAPREAGUE VA  1900   79 80  190/  7/ 11 1020.1F
THOMAS POINT MD  1900   78 78  160/ 16/ 17 1019.4F
GOOSES REEF MD   1900   78     180/ 14/ 16 1019.7F
COVE POINT MD    1900   77     170/ 15/ 17 1019.4F
SOLOMONS ISLAND  1900      80                N/A
BISHOPS HEAD MD  1900   79 82  180/  8/ 11 1019.5F
PINEY POINT MD   1900          200/  7/  9   N/A
POTOMAC MD       1900   81     210/  8/ 12 1018.9S
CAMBRIDGE MD     1900   82 78  190/  8/ 12 1019.2S
LEWISETTA VA     1900   81 80  200/ 11/ 14 1019.2S
RAPPAHANNOCK LGT 1900          190/ 11/ 12 1020.8S
STINGRAY PT      1900   78     170/ 14/ 16 1020.8R
YORK RVR RNG VA  1900   78     150/ 11/ 11 1019.7F
YORKTOWN VA      1900   82 79  270/  2/  5 1019.8F
JAMESTOWN VA     1900   80     210/  8/ 12   N/A
DOMINION TERM VA 1900   81     120/  3/  5 1020.4S
KIPTOPEKE VA     1900      80  180/ 10/ 11   N/A
CHES BAY BRIDGE  1900   79 73   90/  6/ 10 1019.9S
CAPE HENRY VA    1900   78     130/ 10/ 12 1019.3F
WILLOUBY STN VA  1900          280/  4/  4 1019.7F
S CRANEY ISL VA  1900          200/  3/  5 1020.3S
CAPE HENRY BUOY  1900      77                N/A     2/ 7
1ST LANDING BUOY 1900   78     140/ 12/ 14 1020.1F
CAPE CHARLES BUO 1900      77                N/A     2/ 8
OFFSHORE WE BUOY 1900      79                N/A     2/ 8
64NM E OF VA BCH 1900   78 80   20/  4/  6 1020.9R   3/ 8   3/ 8
DUCK PIER NC     1900   84 77  100/  5/  5 1020.2S
44056 DUCK FRF   1900                        N/A     2/ 8
OREGON INLET NC  1900   79 78   40/  7/  8 1020.8S
HATTERAS NC      1900   81 80   60/  7/ 10 1021.0R
DIAMOND SHLS NC  1800          VRB 12/ 14  1020.1F   3/ 7   3/ 7
CAPE LOOKOUT NC  1800   80      70/ 11/ 13 1020.2R
$$



USA.gov is the U.S. government's official web portal to all federal, state and local government web resources and services.